EST,Max TemperatureF,Mean TemperatureF,Min TemperatureF,Max Dew PointF,MeanDew PointF,Min DewpointF,Max Humidity, Mean Humidity, Min Humidity, Max Sea Level PressureIn, Mean Sea Level PressureIn, Min Sea Level PressureIn, Max VisibilityMiles, Mean VisibilityMiles, Min VisibilityMiles, Max Wind SpeedMPH, Mean Wind SpeedMPH, Max Gust SpeedMPH,PrecipitationIn, CloudCover, Events, WindDirDegrees
2013-2-1,21,15,9,9,7,0,92,70,47,30.13,29.77,29.54,10,6,1,23,9,33,T,8,Snow,322
2013-2-2,19,11,3,14,8,0,100,76,51,30.21,30.08,30.00,10,6,1,16,4,22,0.01,6,Snow,204
2013-2-3,22,14,5,13,8,4,100,79,57,30.07,29.95,29.77,10,5,0,5,0,6,T,6,Fog-Snow,109
2013-2-4,21,13,5,12,5,-8,96,64,31,29.95,29.77,29.68,10,7,2,23,9,32,T,6,Snow,313
2013-2-5,19,8,-3,5,-4,-9,86,65,43,30.08,30.00,29.95,10,10,10,7,1,10,T,2,,60
2013-2-6,28,17,6,22,13,-9,88,67,46,30.39,30.03,29.92,10,5,0,18,7,26,0.01,7,Fog-Snow,320
2013-2-7,14,7,-1,-2,-8,-11,72,53,34,30.61,30.52,30.40,10,10,10,12,2,15,T,3,,330
2013-2-8,20,16,12,19,14,-2,100,77,53,30.48,30.15,29.90,10,1,0,12,3,17,0.43,8,Fog-Snow,91
2013-2-9,15,8,1,13,3,-6,92,75,58,30.37,30.06,29.88,10,4,0,22,11,33,0.07,5,Fog-Snow,351
2013-2-10,26,9,-9,2,-3,-10,91,59,27,30.52,30.44,30.36,10,10,10,9,1,13,0.00,0,,345
2013-2-11,37,21,5,31,23,1,100,70,40,30.33,29.85,29.62,10,5,1,16,5,23,0.08,8,Rain-Snow,182
2013-2-12,35,32,29,30,27,23,92,81,69,29.87,29.69,29.59,10,6,1,21,7,29,T,8,Rain-Snow,270
2013-2-13,33,29,24,23,21,16,85,66,47,29.88,29.83,29.79,10,10,8,10,1,14,0.00,8,,292
2013-2-14,33,27,21,23,19,16,84,69,53,30.00,29.91,29.78,10,9,1,7,2,,0.00,7,,340
2013-2-15,41,32,22,28,23,17,92,68,44,29.98,29.92,29.86,10,8,1,20,7,30,0.01,7,Snow,202
2013-2-16,31,23,15,25,15,3,92,70,47,30.02,29.98,29.92,10,9,2,13,5,17,T,6,Snow,333
2013-2-17,15,11,7,5,1,-1,83,71,59,29.89,29.74,29.65,10,8,2,31,14,46,T,7,Snow,317
2013-2-18,20,12,4,0,-4,-9,79,54,28,30.19,30.03,29.76,10,8,2,31,14,40,T,3,Snow,309
2013-2-19,37,21,5,31,19,-5,100,69,38,30.19,29.81,29.59,10,6,1,23,5,29,0.10,6,Snow,174
2013-2-20,30,24,19,30,20,13,100,78,55,29.78,29.64,29.56,10,4,0,17,9,27,0.00,8,Fog-Snow,289
2013-2-21,21,14,7,18,8,1,96,82,67,30.38,29.95,29.73,10,5,0,17,10,24,0.02,8,Fog-Snow,313
2013-2-22,31,24,16,20,18,16,92,75,58,30.47,30.38,30.30,10,10,7,12,2,16,0.00,5,,116
2013-2-23,30,29,28,29,26,18,92,75,58,30.28,30.06,29.92,10,3,0,17,9,24,0.08,8,Fog-Snow,174
2013-2-24,32,30,27,31,29,26,100,96,92,29.98,29.84,29.77,8,2,0,12,3,15,0.06,8,Fog-Snow,314
2013-2-25,32,30,27,30,28,27,100,93,85,30.28,30.13,29.93,9,6,2,9,3,13,T,8,Snow,315
2013-2-26,38,32,26,29,28,25,100,82,64,30.37,30.29,30.19,10,6,0,10,3,15,0.02,8,Fog,147
2013-2-27,35,32,29,34,30,25,100,86,72,30.18,29.85,29.66,10,2,0,13,5,17,0.34,8,Fog-Snow,120
2013-2-28,38,34,29,34,31,28,100,91,82,29.68,29.61,29.58,10,7,1,6,1,7,0.06,8,Rain-Snow,81